Torna al catalogo

SL-14 DEB

AttivoPO
NORAD 26023·DEBRIS·🇷🇺 Russia

Lanciato Sep 28, 1991 da Plesetsk Cosmodrome

Loading…

Prossimi Passaggi (prossime 24 ore)

TLE

AggiornatoSource: Space-Track

Epoca: Sep 13, 2026, 23:24 UTC

1 26023U 91068AJ  26256.97563458  .00000095  00000-0  54583-3 0  9997
2 26023  82.5729  78.5472 0007704  97.7945  56.3584 12.51413830598225

Traccia SL-14 DEB in tempo reale con AllMySat

Download on the App Store